{"data":{"norad_id":60126,"intl_designator":"2024-118P","name":"STARLINK-31846","alt_names":[],"object_type":"PAYLOAD","status":"ACTIVE","operator":null,"country":"US","launch_date":"2024-06-24","launch_site_code":"AFWTR","launch_vehicle":null,"mission":null,"orbit_class":"UNKNOWN","rcs_meters":null,"size_class":null,"mass_kg":null,"dimensions":null,"purposes":["comms"],"wikipedia_slug":null,"has_3d_model":false,"image_url":null,"decayed_at":null,"tle_current":{"epoch":"2026-05-24T22:57:37.197792Z","epoch_age_seconds":86046,"freshness":"FRESH","line1":"1 60126U 24118P   26144.95668053  .00001500  00000+0  62781-4 0  9993","line2":"2 60126  53.1606  32.4361 0001302  83.7718 276.3431 15.30193139107376","mean_motion":15.30193139,"eccentricity":0.0001302,"inclination_deg":53.1606,"raan_deg":32.4361,"arg_perigee_deg":83.7718,"mean_anomaly_deg":276.3431,"bstar":6.2781e-5,"rev_number":10737,"period_min":94.105767651073,"perigee_km":474.34324609848,"apogee_km":476.12786431185,"semimajor_km":6853.3725552052,"source":"CELESTRAK","updated_at":"2026-05-25T13:38:19.168236Z"}}}